Time,TemperatureF,DewpointF,PressureIn,WindDirection,WindDirectionDegrees,WindSpeedMPH,WindSpeedGustMPH,Humidity,HourlyPrecipIn,Conditions,Clouds,dailyrainin,SolarRadiationWatts/m^2,SoftwareType,DateUTC
2013-04-10 00:00:00,47.0,44.0,-100.00,ENE,67,6.0,-999.0,89,-99.99,,,-99.99,0.000000,,2013-04-10 04:00:00,
2013-04-10 00:43:00,47.0,44.0,-100.00,ENE,67,6.0,-999.0,89,-99.99,,,-99.99,0.000000,,2013-04-10 04:43:00,
2013-04-10 00:53:00,47.0,44.0,-100.00,ENE,67,6.0,-999.0,89,-99.99,,,-99.99,0.000000,,2013-04-10 04:53:00,
2013-04-10 01:00:00,45.0,42.0,-100.00,ENE,67,7.0,-999.0,87,-99.99,,,-99.99,0.000000,,2013-04-10 05:00:00,
2013-04-10 01:43:00,45.0,42.0,-100.00,ENE,67,7.0,-999.0,87,-99.99,,,-99.99,0.000000,,2013-04-10 05:43:00,
2013-04-10 01:53:00,45.0,42.0,-100.00,ENE,67,7.0,-999.0,87,-99.99,,,-99.99,0.000000,,2013-04-10 05:53:00,
2013-04-10 02:00:00,45.0,41.0,-100.00,East,90,7.0,-999.0,86,-99.99,,,-99.99,0.000000,,2013-04-10 06:00:00,
2013-04-10 02:42:00,45.0,41.0,-100.00,East,90,7.0,-999.0,86,-99.99,,,-99.99,0.000000,,2013-04-10 06:42:00,
2013-04-10 02:52:00,45.0,41.0,-100.00,East,90,7.0,-999.0,86,-99.99,,,-99.99,0.000000,,2013-04-10 06:52:00,
2013-04-10 03:00:00,45.0,41.0,-100.00,East,90,6.0,-999.0,85,-99.99,,,-99.99,0.000000,,2013-04-10 07:00:00,
2013-04-10 03:43:00,45.0,41.0,-100.00,East,90,6.0,-999.0,85,-99.99,,,-99.99,0.000000,,2013-04-10 07:43:00,
2013-04-10 03:52:00,45.0,41.0,-100.00,East,90,6.0,-999.0,85,-99.99,,,-99.99,0.000000,,2013-04-10 07:52:00,
2013-04-10 04:00:00,45.0,42.0,-100.00,East,90,6.0,-999.0,87,-99.99,,,-99.99,0.000000,,2013-04-10 08:00:00,
2013-04-10 04:43:00,45.0,42.0,-100.00,East,90,6.0,-999.0,87,-99.99,,,-99.99,0.000000,,2013-04-10 08:43:00,
2013-04-10 04:52:00,45.0,42.0,-100.00,East,90,6.0,-999.0,87,-99.99,,,-99.99,0.000000,,2013-04-10 08:52:00,
2013-04-10 05:00:00,45.0,42.0,-100.00,East,90,5.0,-999.0,90,0.02,,,-99.99,0.000000,,2013-04-10 09:00:00,
2013-04-10 05:43:00,45.0,42.0,-100.00,East,90,5.0,-999.0,90,0.02,,,-99.99,0.000000,,2013-04-10 09:43:00,
2013-04-10 05:53:00,45.0,42.0,-100.00,East,90,5.0,-999.0,90,0.02,,,-99.99,0.000000,,2013-04-10 09:53:00,
2013-04-10 06:00:00,44.0,42.0,-100.00,East,90,3.0,-999.0,92,-99.99,,,-99.99,0.000000,,2013-04-10 10:00:00,
2013-04-10 06:43:00,44.0,42.0,-100.00,East,90,3.0,-999.0,92,-99.99,,,-99.99,0.000000,,2013-04-10 10:43:00,
2013-04-10 06:52:00,44.0,42.0,-100.00,East,90,3.0,-999.0,92,-99.99,,,-99.99,0.000000,,2013-04-10 10:52:00,
2013-04-10 07:00:00,42.0,40.0,-100.00,ENE,67,6.0,-999.0,92,-99.99,,,-99.99,0.000000,,2013-04-10 11:00:00,
2013-04-10 07:42:00,42.0,40.0,-100.00,ENE,67,6.0,-999.0,92,-99.99,,,-99.99,0.000000,,2013-04-10 11:42:00,
2013-04-10 07:53:00,42.0,40.0,-100.00,ENE,67,6.0,-999.0,92,-99.99,,,-99.99,0.000000,,2013-04-10 11:53:00,
2013-04-10 08:00:00,41.0,39.0,-100.00,ENE,67,8.0,-999.0,92,-99.99,,,-99.99,2.320000,,2013-04-10 12:00:00,
2013-04-10 08:43:00,41.0,39.0,-100.00,ENE,67,8.0,-999.0,92,-99.99,,,-99.99,2.320000,,2013-04-10 12:43:00,
2013-04-10 08:52:00,41.0,39.0,-100.00,ENE,67,8.0,-999.0,92,-99.99,,,-99.99,2.320000,,2013-04-10 12:52:00,
2013-04-10 09:00:00,40.0,38.0,-100.00,East,90,8.0,-999.0,93,-99.99,,,-99.99,17.400000,,2013-04-10 13:00:00,
2013-04-10 09:43:00,40.0,38.0,-100.00,East,90,8.0,-999.0,93,-99.99,,,-99.99,17.400000,,2013-04-10 13:43:00,
2013-04-10 09:53:00,40.0,38.0,-100.00,East,90,8.0,-999.0,93,-99.99,,,-99.99,17.400000,,2013-04-10 13:53:00,
2013-04-10 10:00:00,40.0,38.0,-100.00,ENE,67,6.0,-999.0,94,0.01,,,-99.99,19.719999,,2013-04-10 14:00:00,
2013-04-10 10:42:00,40.0,38.0,-100.00,ENE,67,6.0,-999.0,94,0.01,,,-99.99,19.719999,,2013-04-10 14:42:00,
2013-04-10 10:52:00,40.0,38.0,-100.00,ENE,67,6.0,-999.0,94,0.01,,,-99.99,19.719999,,2013-04-10 14:52:00,
2013-04-10 12:00:00,39.0,38.0,-100.00,ESE,112,9.0,-999.0,93,0.06,,,-99.99,80.040001,,2013-04-10 16:00:00,
2013-04-10 12:43:00,39.0,38.0,-100.00,ESE,112,9.0,-999.0,93,0.06,,,-99.99,80.040001,,2013-04-10 16:43:00,
2013-04-10 12:53:00,39.0,38.0,-100.00,ESE,112,9.0,-999.0,93,0.06,,,-99.99,80.040001,,2013-04-10 16:53:00,
2013-04-10 13:00:00,42.0,40.0,-100.00,East,90,4.0,-999.0,92,0.01,,,-99.99,149.639999,,2013-04-10 17:00:00,
2013-04-10 13:43:00,42.0,40.0,-100.00,East,90,4.0,-999.0,92,0.01,,,-99.99,149.639999,,2013-04-10 17:43:00,
2013-04-10 13:53:00,42.0,40.0,-100.00,East,90,4.0,-999.0,92,0.01,,,-99.99,149.639999,,2013-04-10 17:53:00,
2013-04-10 14:00:00,43.0,40.0,-100.00,ESE,112,4.0,-999.0,91,-99.99,,,-99.99,118.320000,,2013-04-10 18:00:00,
2013-04-10 14:43:00,43.0,40.0,-100.00,ESE,112,4.0,-999.0,91,-99.99,,,-99.99,118.320000,,2013-04-10 18:43:00,
2013-04-10 14:53:00,43.0,40.0,-100.00,ESE,112,4.0,-999.0,91,-99.99,,,-99.99,118.320000,,2013-04-10 18:53:00,
2013-04-10 15:00:00,43.0,40.0,-100.00,NE,45,5.0,-999.0,90,-99.99,,,-99.99,98.599998,,2013-04-10 19:00:00,
2013-04-10 15:42:00,43.0,40.0,-100.00,NE,45,5.0,-999.0,90,-99.99,,,-99.99,98.599998,,2013-04-10 19:42:00,
2013-04-10 15:53:00,43.0,40.0,-100.00,NE,45,5.0,-999.0,90,-99.99,,,-99.99,98.599998,,2013-04-10 19:53:00,
2013-04-10 16:00:00,43.0,40.0,-100.00,NE,45,5.0,-999.0,88,-99.99,,,-99.99,131.080002,,2013-04-10 20:00:00,
2013-04-10 16:33:00,43.0,40.0,-100.00,NE,45,5.0,-999.0,88,-99.99,,,-99.99,131.080002,,2013-04-10 20:33:00,
2013-04-10 16:43:00,43.0,40.0,-100.00,NE,45,5.0,-999.0,88,-99.99,,,-99.99,131.080002,,2013-04-10 20:43:00,
2013-04-10 16:52:00,43.0,40.0,-100.00,NE,45,5.0,-999.0,88,-99.99,,,-99.99,131.080002,,2013-04-10 20:52:00,
2013-04-10 17:00:00,42.0,39.0,-100.00,ENE,67,8.0,-999.0,89,-99.99,,,-99.99,87.000000,,2013-04-10 21:00:00,
2013-04-10 17:33:00,42.0,39.0,-100.00,ENE,67,8.0,-999.0,89,-99.99,,,-99.99,87.000000,,2013-04-10 21:33:00,
2013-04-10 17:43:00,42.0,39.0,-100.00,ENE,67,8.0,-999.0,89,-99.99,,,-99.99,87.000000,,2013-04-10 21:43:00,
2013-04-10 17:53:00,42.0,39.0,-100.00,ENE,67,8.0,-999.0,89,-99.99,,,-99.99,87.000000,,2013-04-10 21:53:00,
2013-04-10 18:00:00,41.0,39.0,-100.00,ENE,67,6.0,-999.0,90,-99.99,,,-99.99,44.080002,,2013-04-10 22:00:00,
2013-04-10 18:34:00,41.0,39.0,-100.00,ENE,67,6.0,-999.0,90,-99.99,,,-99.99,44.080002,,2013-04-10 22:34:00,
2013-04-10 18:43:00,41.0,39.0,-100.00,ENE,67,6.0,-999.0,90,-99.99,,,-99.99,44.080002,,2013-04-10 22:43:00,
2013-04-10 18:53:00,41.0,39.0,-100.00,ENE,67,6.0,-999.0,90,-99.99,,,-99.99,44.080002,,2013-04-10 22:53:00,
2013-04-10 19:00:00,41.0,38.0,-100.00,ENE,67,7.0,-999.0,90,-99.99,,,-99.99,40.599998,,2013-04-10 23:00:00,
2013-04-10 19:33:00,41.0,38.0,-100.00,ENE,67,7.0,-999.0,90,-99.99,,,-99.99,40.599998,,2013-04-10 23:33:00,
2013-04-10 19:43:00,41.0,38.0,-100.00,ENE,67,7.0,-999.0,90,-99.99,,,-99.99,40.599998,,2013-04-10 23:43:00,
2013-04-10 19:53:00,41.0,38.0,-100.00,ENE,67,7.0,-999.0,90,-99.99,,,-99.99,40.599998,,2013-04-10 23:53:00,
2013-04-10 20:00:00,40.0,38.0,-100.00,ENE,67,7.0,-999.0,90,-99.99,,,-99.99,11.600000,,2013-04-11 00:00:00,
2013-04-10 20:32:00,40.0,38.0,-100.00,ENE,67,7.0,-999.0,90,-99.99,,,-99.99,11.600000,,2013-04-11 00:32:00,
2013-04-10 20:43:00,40.0,38.0,-100.00,ENE,67,7.0,-999.0,90,-99.99,,,-99.99,11.600000,,2013-04-11 00:43:00,
2013-04-10 20:53:00,40.0,38.0,-100.00,ENE,67,7.0,-999.0,90,-99.99,,,-99.99,11.600000,,2013-04-11 00:53:00,
2013-04-10 21:00:00,40.0,37.0,-100.00,ENE,67,10.0,-999.0,91,-99.99,,,-99.99,1.160000,,2013-04-11 01:00:00,
2013-04-10 21:32:00,40.0,37.0,-100.00,ENE,67,10.0,-999.0,91,-99.99,,,-99.99,1.160000,,2013-04-11 01:32:00,
2013-04-10 21:42:00,40.0,37.0,-100.00,ENE,67,10.0,-999.0,91,-99.99,,,-99.99,1.160000,,2013-04-11 01:42:00,
2013-04-10 21:52:00,40.0,37.0,-100.00,ENE,67,10.0,-999.0,91,-99.99,,,-99.99,1.160000,,2013-04-11 01:52:00,
2013-04-10 22:00:00,40.0,37.0,-100.00,East,90,8.0,-999.0,89,-99.99,,,-99.99,0.000000,,2013-04-11 02:00:00,
2013-04-10 22:32:00,40.0,37.0,-100.00,East,90,8.0,-999.0,89,-99.99,,,-99.99,0.000000,,2013-04-11 02:32:00,
2013-04-10 22:42:00,40.0,37.0,-100.00,East,90,8.0,-999.0,89,-99.99,,,-99.99,0.000000,,2013-04-11 02:42:00,
2013-04-10 22:53:00,40.0,37.0,-100.00,East,90,8.0,-999.0,89,-99.99,,,-99.99,0.000000,,2013-04-11 02:53:00,
2013-04-10 23:00:00,40.0,37.0,-100.00,East,90,10.0,-999.0,89,-99.99,,,-99.99,0.000000,,2013-04-11 03:00:00,
2013-04-10 23:33:00,40.0,37.0,-100.00,East,90,10.0,-999.0,89,-99.99,,,-99.99,0.000000,,2013-04-11 03:33:00,
2013-04-10 23:43:00,40.0,37.0,-100.00,East,90,10.0,-999.0,89,-99.99,,,-99.99,0.000000,,2013-04-11 03:43:00,
2013-04-10 23:53:00,40.0,37.0,-100.00,East,90,10.0,-999.0,89,-99.99,,,-99.99,0.000000,,2013-04-11 03:53:00,